weather.gov     
National Weather Service

Regional Weather Roundup
NWS Homepage
This page is being discontinued on March 12, 2014.
The same data is available at this site. Please update your bookmarks.
Thank you, and we apologize for the inconvenience.
Please send an email to SR-SRH.Webmaster@noaa.gov with any concerns.


Current Version
Previous Version:    01  02  03  04  05  06  07  08  09  10  11  12  13  14  15  16  17  18  19  20  21  22  23  24  25  26  27  28  29  30  
   31  32  33  34  35  36  37  38  39  40  41  42  43  44  45  46  47  48  49  50  51  52  53  54  55  
[Printable]
360
ASUS43 KIWX 220800
RWRIWX

KIWX WEATHER ROUNDUP
NATIONAL WEATHER SERVICE NORTHERN INDIANA
400 AM EDT FRI AUG 22 2014

NOTE: "FAIR" INDICATES FEW OR NO CLOUDS BELOW 12,000 FEET WITH NO
SIGNIFICANT WEATHER AND/OR OBSTRUCTIONS TO VISIBILITY.

* THESE STATIONS ARE NOT UNDER NWS QUALITY CONTROL. THEY ALSO MAY NOT
  REPORT WEATHER SUCH AS PRECIPITATION OR FOG.

INZ001>027-220900-
NORTHERN INDIANA

CITY           SKY/WX    TMP DP  RH WIND       PRES   REMARKS
VALPARAISO     HVY RAIN  71  69  93 NE7       29.95S FOG
KNOX*          CLOUDY    71  68  91 W8        29.92F
SOUTH BEND     CLOUDY    72  69  90 SW7       29.94R
GOSHEN         CLOUDY    73  69  87 SW6       29.93S
MONTICELLO*    MOCLDY    73  73  98 CALM      29.90F
ANGOLA*        CLOUDY    66  57  72 CALM      29.94S VSB 1/4
FORT WAYNE     TSTM      71  69  93 E10G22    29.96R
PERU/GRISSOM   CLOUDY    72  72 100 E3        29.94S

$$
INZ028>050-220900-
CENTRAL INDIANA

CITY           SKY/WX    TMP DP  RH WIND       PRES   REMARKS
LAFAYETTE      MOCLDY    76  74  93 S3        29.90F
KOKOMO*        CLOUDY    72  70  94 S7        29.94S
MUNCIE*        TSTM      70  67  90 N7G16     29.99R
INDIANAPOLIS   CLOUDY    76  73  91 SW10      29.95S

$$
MIZ043>046-050>051-056>058-064>065-071>073-077>080-220900-
SOUTHWEST LOWER MICHIGAN

CITY           SKY/WX    TMP DP  RH WIND       PRES   REMARKS
BATTLE CREEK   CLOUDY    73  69  87 CALM      29.94F
BENTON HARBOR  PTCLDY    68  67  96 CALM      29.90F
COLDWATER*     FOG       69  68  97 CALM      29.94S VSB 1/2
HILLSDALE*     FOG       69  69 100 CALM      29.95F VSB 1/4
HOLLAND        CLEAR     71  69  93 E3        29.92F FOG
GRAND RAPIDS   CLOUDY    71  71 100 E5        29.94S FOG
KALAMAZOO      FOG       70  68  93 CALM      29.93F VSB 1/4
STURGIS*         N/A     66  66 100 CALM      29.93S FOG
THREE RIVERS*  FOG       68  67  98 CALM      29.93S VSB 1

$$
OHZ001>008-015>018-024>025-220900-
NORTHWEST OHIO

CITY           SKY/WX    TMP DP  RH WIND       PRES   REMARKS
DEFIANCE       CLEAR     69  67  93 S3        29.96R FOG
FINDLAY        CLOUDY    72  69  90 SE5       29.96R
TOLEDO EXPRESS CLOUDY    70  69  97 CALM      29.94F
TOLEDO METCALF CLOUDY    71  68  90 S5        29.95F
LIMA           FOG       70  68  93 CALM      29.97R VSB 1/2

$$
&&




U.S. Dept. of Commerce
NOAA National Weather Service
1325 East West Highway
Silver Spring, MD 20910
E-mail: w-nws.webmaster@noaa.gov
Page last modified: May 16, 2007
NATIONAL WEATHER SERVICE: for Safety, for Work, for Fun - FOR LIFE